Weather History for KSGS - June, 2013

Change the Weather History Date:

Sunday, June 23, 2013

  Actual Average (KMSP) Record (KMSP)
Temperature  
Mean Temperature 77 °F 71 °F  
Max Temperature 84 °F 81 °F 99 °F (1937)
Min Temperature 70 °F 61 °F 44 °F (1972)
Degree Days  
Heating Degree Days 0 1  
Month to date heating degree days 42  
Since 1 June heating degree days 42  
Since 1 July heating degree days 7578  
Cooling Degree Days 12 7  
Month to date cooling degree days 105  
Year to date cooling degree days 147  
Since 1 June cooling degree days 105  
Growing Degree Days 27 (Base 50)    
Moisture  
Dew Point 67 °F    
Average Humidity 72    
Maximum Humidity 94    
Minimum Humidity 48    
Precipitation  
Precipitation 0.62 in 0.15 in 2.52 in (1873)
Month to date precipitation 3.23  
Year to date precipitation 12.81  
Snow  
Snow 0.00 in 0.00 in 0.00 in ()
Month to date snowfall 0.0  
Since 1 June snowfall 0.0  
Since 1 July snowfall 54.4  
Snow Depth -    
Sea Level Pressure  
Sea Level Pressure 29.80 in    
Wind  
Wind Speed 8 mph (SSW)    
Max Wind Speed 20 mph    
Max Gust Speed 26 mph    
Visibility 10 miles    
Events Rain , Thunderstorm    
T = Trace of Precipitation, MM = Missing Value Source: NWS Daily Summary

Daily Weather History Graph

Daily Weather History Graph

Search for Another Location

Airport or City:

Trip Planner

Search our weather history database for the weather conditions in past years. The results will help you decide how hot, cold, wet, or windy it might be!

Date:

Astronomy

Jun. 23, 2013 Rise Set
Actual Time 5:26 AM CDT 9:02 PM CDT
Civil Twilight 4:49 AM CDT 9:39 PM CDT
Nautical Twilight 3:59 AM CDT 10:29 PM CDT
Astronomical Twilight 2:54 AM CDT 11:34 PM CDT
Moon 9:10 PM CDT (6/23) 5:47 AM CDT (6/23)
Length of Visible Light 16h 50m
Length of Day
15h 35m
Full, 100% of the Moon is Illuminated
Jun 23
Full
Jun 29
Last Quarter
Jul 8
New
Jul 15
First Quarter
Jul 22
Full

Hourly Weather History & Observations

Time (CDT) Temp. Heat Index Dew Point Humidity Pressure Visibility Wind Dir Wind Speed Gust Speed Precip Events Conditions
12:14 AM 75.2 °F - 69.1 °F 81% 29.85 in 10.0 mi ESE 3.5 mph - N/A   Mostly Cloudy
12:34 AM 75.2 °F - 69.4 °F 82% 29.85 in 10.0 mi SE 3.5 mph - N/A   Mostly Cloudy
12:54 AM 74.8 °F - 69.6 °F 84% 29.82 in 10.0 mi SE 5.8 mph - N/A   Scattered Clouds
1:14 AM 74.5 °F - 69.1 °F 83% 29.80 in 10.0 mi SE 4.6 mph - N/A   Clear
1:34 AM 74.3 °F - 68.4 °F 82% 29.80 in 10.0 mi SE 4.6 mph - N/A   Clear
1:54 AM 73.4 °F - 68.0 °F 83% 29.81 in 10.0 mi SE 6.9 mph - N/A   Clear
2:14 AM 73.0 °F - 68.0 °F 84% 29.82 in 10.0 mi SSE 6.9 mph - N/A   Clear
2:34 AM 72.7 °F - 68.0 °F 85% 29.81 in 10.0 mi SE 5.8 mph - N/A   Clear
2:54 AM 72.9 °F - 68.2 °F 85% 29.80 in 10.0 mi SSE 10.4 mph - N/A   Clear
3:14 AM 74.1 °F - 68.0 °F 81% 29.78 in 10.0 mi SSE 15.0 mph 23.0 mph N/A   Clear
3:34 AM 73.9 °F - 67.6 °F 81% 29.77 in 10.0 mi SSE 8.1 mph 17.3 mph N/A Rain Light Rain
3:54 AM 73.8 °F - 67.5 °F 81% 29.78 in 10.0 mi South 9.2 mph - N/A   Scattered Clouds
4:14 AM 73.8 °F - 67.5 °F 81% 29.77 in 10.0 mi SSE 6.9 mph - N/A   Clear
4:34 AM 74.7 °F - 67.5 °F 78% 29.78 in 10.0 mi SSE 9.2 mph 17.3 mph N/A   Scattered Clouds
4:54 AM 73.9 °F - 66.2 °F 77% 29.75 in 10.0 mi SSE 11.5 mph 19.6 mph N/A   Scattered Clouds
5:14 AM 73.6 °F - 65.3 °F 75% 29.74 in 10.0 mi SSE 17.3 mph 24.2 mph N/A   Clear
5:34 AM 73.4 °F - 64.8 °F 74% 29.76 in 10.0 mi SSE 16.1 mph 24.2 mph N/A   Scattered Clouds
5:54 AM 73.4 °F - 64.9 °F 75% 29.77 in 10.0 mi SSE 11.5 mph 20.7 mph N/A   Mostly Cloudy
6:14 AM 73.6 °F - 65.8 °F 77% 29.81 in 4.0 mi South 18.4 mph 26.5 mph 0.15 in Rain , Thunderstorm Heavy Thunderstorms and Rain
6:34 AM 70.7 °F - 68.4 °F 92% 29.80 in 4.0 mi South 9.2 mph - 0.51 in Rain , Thunderstorm Thunderstorms and Rain
6:54 AM 70.7 °F - 68.5 °F 93% 29.79 in 5.0 mi South 9.2 mph 19.6 mph 0.56 in Rain , Thunderstorm Light Thunderstorms and Rain
7:14 AM 70.7 °F - 68.9 °F 94% 29.78 in 5.0 mi SSE 11.5 mph - 0.03 in Rain , Thunderstorm Light Thunderstorms and Rain
7:34 AM 70.7 °F - 68.9 °F 94% 29.77 in 7.0 mi SSE 8.1 mph - 0.05 in Rain Light Rain
7:54 AM 70.9 °F - 69.1 °F 94% 29.76 in 10.0 mi South 9.2 mph 16.1 mph 0.05 in Rain Light Rain
8:14 AM 70.7 °F - 68.9 °F 94% 29.75 in 10.0 mi SSE 8.1 mph - 0.01 in Rain Light Rain
8:34 AM 70.2 °F - 68.4 °F 94% 29.74 in 10.0 mi SSE 5.8 mph - 0.01 in   Scattered Clouds
8:54 AM 70.2 °F - 68.4 °F 94% 29.72 in 10.0 mi SE 9.2 mph 16.1 mph 0.01 in   Mostly Cloudy
9:14 AM 70.5 °F - 68.7 °F 94% 29.72 in 10.0 mi SSE 10.4 mph 18.4 mph N/A   Scattered Clouds
9:34 AM 71.1 °F - 69.3 °F 94% 29.71 in 10.0 mi SSE 11.5 mph 17.3 mph N/A   Clear
9:54 AM 72.0 °F - 70.2 °F 94% 29.71 in 10.0 mi SSE 13.8 mph 20.7 mph N/A   Clear
10:14 AM 72.7 °F - 70.9 °F 94% 29.73 in 10.0 mi South 13.8 mph 18.4 mph N/A   Clear
10:34 AM 75.0 °F - 70.5 °F 86% 29.73 in 10.0 mi SW 11.5 mph 17.3 mph N/A   Clear
10:54 AM 75.7 °F - 69.3 °F 80% 29.75 in 10.0 mi SW 13.8 mph 19.6 mph N/A   Mostly Cloudy
11:14 AM 76.5 °F - 69.1 °F 78% 29.75 in 10.0 mi SW 9.2 mph - N/A   Scattered Clouds
11:34 AM 77.9 °F - 68.7 °F 73% 29.76 in 10.0 mi SW 10.4 mph 16.1 mph N/A   Scattered Clouds
11:54 AM 78.3 °F - 68.2 °F 71% 29.78 in 10.0 mi SW 12.7 mph 19.6 mph N/A   Scattered Clouds
12:14 PM 78.8 °F - 67.8 °F 69% 29.78 in 10.0 mi WSW 10.4 mph 20.7 mph N/A   Mostly Cloudy
12:34 PM 79.3 °F - 67.3 °F 66% 29.79 in 10.0 mi SW 18.4 mph 25.3 mph N/A   Mostly Cloudy
12:54 PM 79.7 °F - 65.8 °F 62% 29.80 in 10.0 mi SW 19.6 mph 23.0 mph N/A   Mostly Cloudy
1:14 PM 80.6 °F 82.5 °F 65.7 °F 60% 29.80 in 10.0 mi WSW 12.7 mph 19.6 mph N/A   Scattered Clouds
1:34 PM 80.6 °F 82.4 °F 64.9 °F 59% 29.79 in 10.0 mi SW 13.8 mph - N/A   Scattered Clouds
1:54 PM 80.1 °F 81.9 °F 65.1 °F 60% 29.79 in 10.0 mi SW 11.5 mph 17.3 mph N/A   Clear
2:14 PM 80.6 °F 82.7 °F 65.8 °F 61% 29.80 in 10.0 mi SW 10.4 mph - N/A   Scattered Clouds
2:34 PM 81.1 °F 83.1 °F 65.7 °F 59% 29.80 in 10.0 mi SW 13.8 mph 19.6 mph N/A   Scattered Clouds
2:54 PM 82.2 °F 84.4 °F 66.0 °F 58% 29.80 in 10.0 mi SW 13.8 mph 20.7 mph N/A   Scattered Clouds
3:14 PM 82.6 °F 84.9 °F 66.2 °F 58% 29.80 in 10.0 mi SW 9.2 mph - N/A   Scattered Clouds
3:34 PM 83.3 °F 85.1 °F 65.3 °F 54% 29.80 in 10.0 mi West 12.7 mph - N/A   Scattered Clouds
3:54 PM 83.8 °F 85.6 °F 65.1 °F 53% 29.79 in 10.0 mi WSW 10.4 mph - N/A   Clear
4:14 PM 83.5 °F 85.1 °F 64.9 °F 53% 29.80 in 10.0 mi WSW 10.4 mph - N/A   Clear
4:34 PM 84.2 °F 85.4 °F 63.9 °F 50% 29.79 in 10.0 mi SW 11.5 mph 16.1 mph N/A   Scattered Clouds
4:54 PM 84.2 °F 85.4 °F 63.9 °F 50% 29.79 in 10.0 mi WSW 8.1 mph - N/A   Clear
5:14 PM 83.8 °F 85.3 °F 64.6 °F 52% 29.79 in 10.0 mi SW 10.4 mph - N/A   Scattered Clouds
5:34 PM 84.0 °F 85.8 °F 65.3 °F 53% 29.80 in 10.0 mi WSW 6.9 mph - N/A   Scattered Clouds
5:54 PM 84.4 °F 85.4 °F 63.1 °F 49% 29.81 in 10.0 mi West 9.2 mph - N/A   Mostly Cloudy
6:14 PM 84.2 °F 85.0 °F 62.8 °F 48% 29.81 in 10.0 mi West 11.5 mph - N/A   Scattered Clouds
6:34 PM 84.2 °F 85.4 °F 63.7 °F 50% 29.81 in 10.0 mi WSW 5.8 mph - N/A   Scattered Clouds
6:54 PM 83.3 °F 84.8 °F 64.4 °F 53% 29.82 in 10.0 mi West 12.7 mph 17.3 mph N/A   Scattered Clouds
7:14 PM 82.9 °F 84.0 °F 63.3 °F 51% 29.82 in 10.0 mi West 9.2 mph - N/A   Clear
7:34 PM 82.4 °F 83.7 °F 63.9 °F 53% 29.82 in 10.0 mi West 5.8 mph - N/A   Clear
7:54 PM 81.9 °F 83.1 °F 63.3 °F 53% 29.83 in 10.0 mi West 8.1 mph - N/A   Clear
8:14 PM 81.3 °F 82.6 °F 63.3 °F 54% 29.84 in 10.0 mi West 4.6 mph - N/A   Clear
8:34 PM 80.6 °F 82.2 °F 63.9 °F 57% 29.84 in 10.0 mi Calm Calm - N/A   Clear
8:54 PM 79.5 °F - 64.8 °F 60% 29.84 in 10.0 mi SW 3.5 mph - N/A   Clear
9:14 PM 78.8 °F - 64.9 °F 62% 29.85 in 10.0 mi Calm Calm - N/A   Clear
9:34 PM 77.7 °F - 66.2 °F 68% 29.86 in 10.0 mi Calm Calm - N/A   Clear
9:54 PM 76.5 °F - 65.5 °F 69% 29.87 in 10.0 mi SW 3.5 mph - N/A   Clear
10:14 PM 75.9 °F - 65.5 °F 70% 29.87 in 10.0 mi Calm Calm - N/A   Clear
10:34 PM 75.0 °F - 65.7 °F 73% 29.87 in 10.0 mi Calm Calm - N/A   Clear
10:54 PM 73.8 °F - 66.2 °F 77% 29.88 in 10.0 mi Calm Calm - N/A   Clear
11:14 PM 73.4 °F - 65.7 °F 77% 29.88 in 10.0 mi Calm Calm - N/A   Clear
11:34 PM 72.3 °F - 65.7 °F 79% 29.89 in 10.0 mi Calm Calm - N/A   Clear
11:54 PM 71.4 °F - 65.3 °F 81% 29.89 in 10.0 mi SW 3.5 mph - N/A   Clear